Find Starlink 32895

NORAD ID: 63081 Int'l Des: 2025-037 Owner: SPXS Country: US Constellation: starlink operational
LEOCIRCULAR

リアルタイム位置

3D地球を読み込み中...

Starlink 32895について

説明を読み込み中...

次回通過

Passes for default location (London). Set your location on the main map for personalized predictions.

高度履歴

Loading altitude history...

軌道要素

1 63081U 25037E 26132.41619178 .00002471 00000-0 21475-3 0 9992
2 63081 70.0008 193.9390 0004003 269.9199 90.1501 14.98336509 68009
Epoch: May 12, 2026 • Age: 14 hours

現在のステータス

高度 585.4 km
速度 7.57 km/s
衛星直下点 -41.27°S, 60.02°W
打ち上げ日 Feb 23, 2025
運用期間 1.2 years
タイプ internet

技術仕様

分類 Payload
質量 730.00 kg
乾燥質量 700.00 kg
総質量 730.00 kg
長さ 0.30 m
直径 4.10 m
スパン 29.00 m
形状 Box + pan
製造者 SPXS
バスタイプ Starlink V2M
フェーズステータス In Orbit
所有者/国 SPXS/US

Most Searched